[[{"header":{"parameterUnit":"m.s-1","parameterCategory":1,"la1":30.2991,"la2":30.254,"lo1":-89.0895,"lo2":-89.0444,"dy":0.0017,"dx":0.0017,"nx":28,"ny":28,"refTime":"2024-09-01T03:00:00:Z","depth":0,"parameterNumber":2,"parameterNumberName":"U-component_of_WINDS"},"data":[0,0,0,0,0,0,0,0,0,0,0,0,0,0,0,0,0,0,0,0,0,0,0,0,0,0,0,0,0,0,0,0,0,0,0,0,0,0,0,0,0,0,0,0,0,0,0,0,0,0,0,0,0,0,0,0,0,0,-3.5102,-3.5101,0,-3.5078,-3.5078,-3.5078,-3.5,-3.4999,-3.4997,-3.4995,-3.4973,-3.4974,-3.4975,0,0,0,0,0,0,0,0,0,0,0,0,0,-3.5083,-3.5084,-3.5102,-3.5101,-3.5101,-3.5078,-3.5078,-3.5078,-3.5001,-3.4998,-3.4996,-3.4994,-3.4973,-3.4974,-3.4975,0,0,0,0,0,0,0,0,0,0,0,0,0,-3.5079,-3.5084,-3.5102,-3.506,-3.5056,-3.5078,-3.5078,-3.5078,-3.5001,-3.4998,-3.4996,-3.4993,-3.4972,-3.4974,-3.4975,-3.5037,0,0,-3.498,-3.4981,0,0,0,0,0,0,0,0,-3.5079,-3.508,-3.5066,-3.5063,-3.5058,-3.504,-3.5063,-3.5064,-3.5002,-3.5022,-3.4995,-3.4992,-3.4997,-3.4997,-3.4998,-3.5036,-3.5035,-3.498,-3.4981,-3.4982,-3.4982,0,0,0,0,0,0,0,-3.508,-3.508,-3.5092,-3.5066,-3.5061,-3.5044,-3.504,-3.5063,-3.5025,-3.502,-3.5014,-3.5012,-3.4995,-3.4997,-3.4997,-3.5035,-3.498,-3.4981,-3.4982,-3.4983,-3.5125,-3.5128,0,0,0,0,0,0,-3.5086,-3.5081,-3.5093,-3.5092,-3.5063,-3.5046,-3.5042,-3.5048,-3.5024,-3.5018,-3.5015,-3.5009,-3.4995,-3.4995,-3.4996,-3.5068,-3.4982,-3.4983,-3.4984,-3.5123,-3.5126,-3.5129,0,0,0,0,0,0,-3.5085,-3.5087,-3.5094,-3.5085,-3.5084,-3.5049,-3.5057,-3.5049,-3.5051,-3.502,-3.5013,-3.5024,-3.4993,-3.4994,-3.5028,-3.5066,-3.4984,-3.4985,-3.5119,-3.5124,-3.5128,-3.5212,0,0,0,0,0,0,-3.5085,-3.5088,-3.511,-3.5086,-3.5085,-3.5126,-3.5059,-3.5051,-3.5054,-3.5046,-3.5027,-3.5021,-3.4991,-3.5026,-3.503,-3.5067,-3.4986,-3.5116,-3.5121,-3.5126,-3.5206,-3.5219,-3.523,0,0,0,0,0,-3.5085,-3.5134,-3.5111,-3.5113,-3.5112,-3.5128,-3.5128,-3.5092,-3.5057,-3.508,-3.5061,-3.5022,-3.5062,-3.503,-3.5033,-3.5072,-3.5113,-3.512,-3.5126,-3.5201,-3.5217,-3.523,0,0,0,0,0,0,-3.5163,-3.513,-3.5104,-3.5147,-3.5141,-3.5115,-3.5142,-3.5109,-3.5113,-3.5106,-3.5062,-3.5059,-3.51,-3.5089,-3.5054,-3.5132,-3.5081,-3.5089,-3.5137,-3.5152,-3.5164,-3.5165,-3.4988,0,0,0,0,0,-3.5185,-3.52,-3.5171,-3.5212,-3.521,-3.5177,-3.5183,-3.5156,-3.5148,-3.5145,-3.5128,-3.5123,-3.5134,-3.5142,-3.5151,-3.5205,-3.5201,-3.5233,-3.5245,-3.5255,-3.5262,-3.5292,-3.5307,-3.515,-3.515,-3.515,0,0,-3.5231,-3.5215,-3.5227,-3.5227,-3.5219,-3.5237,-3.5175,-3.5196,-3.5209,-3.5148,-3.518,-3.5168,-3.5159,-3.5204,-3.5223,-3.5196,-3.5305,-3.5264,-3.5272,-3.5273,-3.53,-3.5315,-3.5328,-3.5155,-3.5154,-3.5153,0,0,-3.5324,-3.5313,-3.5347,-3.5341,-3.533,-3.5308,-3.5317,-3.5296,-3.5286,-3.5317,-3.5272,-3.5288,-3.5308,-3.5304,-3.5305,-3.5401,-3.5366,-3.5406,-3.5469,-3.5498,-3.5511,-3.5521,-3.5557,-3.557,-3.5413,-3.5413,-3.5413,0,-3.5383,-3.5407,-3.5368,-3.5393,-3.5395,-3.5342,-3.5377,-3.5373,-3.5366,-3.537,-3.534,-3.5367,-3.5357,-3.5401,-3.5425,-3.5427,-3.5437,-3.5407,-3.5512,-3.5522,-3.5532,-3.5565,-3.5578,-3.5418,-3.5417,-3.5417,-3.5416,0,-3.548,-3.5498,-3.5527,-3.5522,-3.5528,-3.5558,-3.5525,-3.5536,-3.551,-3.5492,-3.5526,-3.5513,-3.5519,-3.5528,-3.5503,-3.557,-3.5554,-3.5519,-3.5467,-3.5552,-3.5583,-3.5595,-3.5425,-3.5423,-3.5421,-3.542,0,0,-3.5619,-3.5595,-3.5606,-3.5604,-3.559,-3.5604,-3.5633,-3.5639,-3.565,-3.5648,-3.5672,-3.5692,-3.5661,-3.5662,-3.5636,-3.5662,-3.5741,-3.5624,-3.5623,-3.5647,-3.5817,-3.5843,-3.5858,-3.5718,-3.5721,-3.5723,-3.5818,0,-3.5708,-3.5754,-3.5722,-3.5775,-3.5792,-3.5744,-3.5769,-3.5764,-3.5749,-3.5763,-3.5746,-3.5762,-3.5718,-3.5719,-3.5743,-3.5726,-3.5775,-3.5719,-3.5742,-3.5743,-3.5745,-3.5874,-3.5901,-3.5991,-3.5829,-3.5831,-3.5833,0,-3.5817,-3.582,-3.5875,-3.586,-3.5866,-3.5889,-3.5894,-3.5907,-3.5902,-3.5889,-3.5893,-3.5861,-3.589,-3.584,-3.5881,-3.5844,-3.5852,-3.5845,-3.5848,-3.5848,-3.5792,-3.5878,-3.6019,-3.6033,-3.5851,-3.585,-3.5848,0,-3.5914,-3.5933,-3.5968,-3.5968,-3.5951,-3.5969,-3.5963,-3.5955,-3.5962,-3.5967,-3.5971,-3.598,-3.5984,-3.5992,-3.5965,-3.5931,-3.601,-3.5957,-3.6001,-3.6002,-3.6019,-3.6019,-3.6164,-3.6025,-3.6025,-3.6024,-3.6024,0,-3.6016,-3.6052,-3.6012,-3.6034,-3.6073,-3.6037,-3.6078,-3.6067,-3.6061,-3.6081,-3.604,-3.606,-3.6022,-3.6039,-3.6018,-3.6056,-3.6058,-3.605,-3.6044,-3.6054,-3.6055,-3.6058,-3.6051,-3.6028,-3.6027,-3.6026,-3.6026,0,-3.613,-3.6105,-3.6141,-3.6123,-3.6119,-3.6149,-3.6134,-3.6155,-3.6138,-3.6165,-3.6169,-3.6143,-3.6161,-3.6135,-3.615,-3.6136,-3.6189,-3.6173,-3.619,-3.6186,-3.6232,-3.6228,-3.6384,-3.6403,-3.6252,-3.6254,-3.6255,0,-3.6197,-3.6224,-3.6209,-3.622,-3.6216,-3.6234,-3.6241,-3.6208,-3.6218,-3.6216,-3.6237,-3.6252,-3.6262,-3.6294,-3.6277,-3.6289,-3.6274,-3.6328,-3.6275,-3.6285,-3.6275,-3.6274,-3.6277,-3.6338,-3.634,-3.6341,-3.6343,0,-3.6319,-3.6306,-3.6317,-3.6326,-3.6336,-3.6341,-3.6343,-3.6355,-3.6321,-3.6334,-3.6352,-3.636,-3.6377,-3.6393,-3.6401,-3.6396,-3.6365,-3.636,-3.6371,-3.638,-3.639,-3.6386,-3.622,-3.6356,-3.6354,-3.6353,-3.6353,-3.6352,-3.6412,-3.6434,-3.6428,-3.6443,-3.6442,-3.6446,-3.6465,-3.6451,-3.6466,-3.6476,-3.6457,-3.6481,-3.6478,-3.6486,-3.6485,-3.6504,-3.6481,-3.6497,-3.6501,-3.6505,-3.6513,-3.6387,-3.6506,-3.6505,-3.6505,-3.6505,-3.6504,0,-3.6532,-3.6526,-3.6541,-3.6546,-3.6559,-3.6529,-3.653,-3.6543,-3.6565,-3.6565,-3.6576,-3.6599,-3.6615,-3.6601,-3.6614,-3.6633,-3.6619,-3.6637,-3.6635,-3.6635,-3.6532,-3.6522,-3.6649,-3.6649,-3.6649,-3.6648,-3.6648,-3.6648,-3.6596,-3.6632,-3.6619,-3.6656,-3.665,-3.6673,-3.6677,-3.6681,-3.6681,-3.6708,-3.6721,-3.6712,-3.6707,-3.6721,-3.6735,-3.6731,-3.6738,-3.6762,-3.6753,-3.6656,-3.6642,-3.6629,-3.6619,-3.6764,-3.6764,-3.6854,-3.6855,-3.6855]},{"header":{"parameterUnit":"m.s-1","parameterCategory":1,"la1":30.2991,"la2":30.254,"lo1":-89.0895,"lo2":-89.0444,"dy":0.0017,"dx":0.0017,"nx":28,"ny":28,"refTime":"2024-09-01T03:00:00:Z","depth":0,"parameterNumber":3,"parameterNumberName":"V-component_of_WINDS"},"data":[0,0,0,0,0,0,0,0,0,0,0,0,0,0,0,0,0,0,0,0,0,0,0,0,0,0,0,0,0,0,0,0,0,0,0,0,0,0,0,0,0,0,0,0,0,0,0,0,0,0,0,0,0,0,0,0,0,0,2.4762,2.4763,0,2.4828,2.4829,2.483,2.4914,2.4916,2.4917,2.4919,2.4983,2.4983,2.4983,0,0,0,0,0,0,0,0,0,0,0,0,0,2.4708,2.4708,2.4762,2.4763,2.4764,2.4828,2.4829,2.483,2.4914,2.4916,2.4918,2.4919,2.4982,2.4983,2.4983,0,0,0,0,0,0,0,0,0,0,0,0,0,2.4748,2.4708,2.4762,2.4814,2.4819,2.4828,2.4829,2.483,2.4914,2.4916,2.4918,2.492,2.4982,2.4983,2.4984,2.4946,0,0,2.4985,2.4986,0,0,0,0,0,0,0,0,2.4746,2.475,2.4805,2.481,2.4816,2.4865,2.4833,2.4869,2.4913,2.4878,2.4919,2.4921,2.4942,2.4946,2.4953,2.4949,2.4952,2.4986,2.4986,2.4986,2.4986,0,0,0,0,0,0,0,2.4743,2.4748,2.4788,2.4806,2.4813,2.4833,2.4841,2.484,2.4897,2.4881,2.4887,2.4894,2.4945,2.4953,2.4956,2.4953,2.4985,2.4986,2.4986,2.4987,2.4922,2.492,0,0,0,0,0,0,2.4732,2.4745,2.4786,2.479,2.4785,2.4832,2.4841,2.4847,2.4897,2.4907,2.4892,2.4898,2.4951,2.4955,2.4958,2.4918,2.4986,2.4987,2.4987,2.4924,2.4921,2.4919,0,0,0,0,0,0,2.4731,2.4735,2.4784,2.4769,2.4777,2.4831,2.4837,2.4848,2.4855,2.4906,2.4916,2.489,2.4952,2.4957,2.4949,2.4922,2.4987,2.4988,2.4926,2.4923,2.492,2.4837,0,0,0,0,0,0,2.4729,2.4734,2.4721,2.4768,2.4777,2.4773,2.4835,2.4847,2.4857,2.4864,2.4906,2.4915,2.4954,2.4948,2.4949,2.4924,2.4988,2.4929,2.4925,2.4921,2.4843,2.4832,2.4822,0,0,0,0,0,2.4727,2.4694,2.472,2.4724,2.4762,2.4772,2.4777,2.4823,2.4854,2.4841,2.4874,2.4914,2.4924,2.4946,2.4949,2.4923,2.4931,2.4926,2.4922,2.4847,2.4834,2.4823,0,0,0,0,0,0,2.464,2.4701,2.473,2.4712,2.4736,2.4786,2.4771,2.4807,2.4822,2.4829,2.4885,2.4894,2.4879,2.49,2.4923,2.489,2.4934,2.4929,2.4876,2.4864,2.4854,2.4849,2.4989,0,0,0,0,0,2.4619,2.4623,2.4676,2.4654,2.4665,2.4715,2.4721,2.4756,2.4782,2.4793,2.4825,2.4849,2.4858,2.4862,2.4873,2.4847,2.4857,2.483,2.482,2.4812,2.4807,2.4796,2.4784,2.4904,2.4904,2.4904,0,0,2.4575,2.4609,2.4608,2.4638,2.466,2.4663,2.4723,2.4723,2.4725,2.4792,2.4787,2.4811,2.4842,2.4824,2.4818,2.4842,2.4777,2.4805,2.4798,2.4798,2.479,2.4778,2.4768,2.4901,2.4901,2.4902,0,0,2.4497,2.4522,2.4508,2.453,2.4565,2.4599,2.4595,2.464,2.4659,2.4655,2.4706,2.4709,2.4723,2.4743,2.4755,2.4685,2.4723,2.4687,2.4634,2.4622,2.4613,2.4605,2.458,2.4571,2.4683,2.4682,2.4682,0,2.4437,2.4444,2.4496,2.4493,2.4504,2.4567,2.4553,2.4572,2.4607,2.4614,2.464,2.466,2.4684,2.4673,2.4656,2.4664,2.4662,2.4682,2.461,2.4602,2.4596,2.4573,2.4564,2.4678,2.4678,2.4679,2.4679,0,2.4369,2.4373,2.4357,2.4392,2.4402,2.4393,2.4443,2.4447,2.4481,2.4512,2.4507,2.4539,2.4559,2.4559,2.459,2.4552,2.4566,2.46,2.4645,2.4579,2.4559,2.455,2.4671,2.4673,2.4674,2.4675,0,0,2.4237,2.4302,2.4295,2.4312,2.4355,2.4359,2.4353,2.4373,2.4376,2.4398,2.4395,2.4406,2.4439,2.4452,2.4487,2.4477,2.4421,2.4513,2.4514,2.4495,2.4381,2.4355,2.4344,2.4446,2.4445,2.4444,2.4379,0,2.4166,2.4161,2.4209,2.419,2.4194,2.4255,2.425,2.4276,2.4305,2.4313,2.4345,2.4352,2.4394,2.4403,2.4396,2.4429,2.4398,2.4434,2.4443,2.4443,2.4434,2.4333,2.4306,2.4243,2.4371,2.437,2.4369,0,2.4083,2.4103,2.4085,2.4131,2.4135,2.4129,2.4152,2.4159,2.4189,2.4212,2.4227,2.4268,2.4266,2.4309,2.4306,2.4329,2.4336,2.4353,2.4352,2.4354,2.4401,2.4333,2.4224,2.4214,2.4357,2.4358,2.4358,0,2.3989,2.4011,2.4004,2.4016,2.4069,2.4064,2.4086,2.4119,2.4128,2.4148,2.4155,2.4173,2.4183,2.4197,2.4242,2.4269,2.4234,2.4281,2.4252,2.425,2.4241,2.4241,2.4131,2.4245,2.4245,2.4245,2.4245,0,2.3905,2.3892,2.3963,2.3958,2.3945,2.4,2.3986,2.4013,2.4042,2.4044,2.4097,2.4097,2.4156,2.4163,2.4198,2.4191,2.4195,2.4212,2.4222,2.4208,2.4205,2.4212,2.4218,2.4243,2.4243,2.4244,2.4244,0,2.3797,2.3844,2.384,2.3891,2.3904,2.3892,2.3936,2.3934,2.3967,2.3968,2.3972,2.4024,2.4035,2.4081,2.4102,2.4126,2.4107,2.4125,2.4097,2.4103,2.4072,2.4074,2.3962,2.3951,2.4071,2.407,2.4069,0,2.3741,2.3733,2.3783,2.3789,2.3809,2.3817,2.3827,2.3881,2.389,2.3925,2.3918,2.3934,2.3949,2.3964,2.4003,2.402,2.4039,2.3999,2.4042,2.4028,2.4039,2.4039,2.4039,2.3989,2.3988,2.3987,2.3986,0,2.3636,2.366,2.3674,2.3696,2.3707,2.3727,2.3749,2.3751,2.381,2.3817,2.383,2.3842,2.3865,2.388,2.3904,2.3925,2.3965,2.3972,2.3966,2.3952,2.3936,2.3945,2.4072,2.3974,2.3975,2.3976,2.3977,2.3977,2.3553,2.3549,2.3584,2.3598,2.3621,2.3641,2.3642,2.3677,2.3688,2.3712,2.3743,2.3752,2.3784,2.382,2.3839,2.3846,2.3869,2.386,2.3858,2.3855,2.3848,2.3935,2.3851,2.3851,2.3851,2.3852,2.3852,0,2.3451,2.3478,2.349,2.3521,2.3532,2.357,2.3597,2.3603,2.3611,2.3638,2.3652,2.3667,2.3682,2.3723,2.3742,2.374,2.3759,2.3743,2.3744,2.3748,2.3827,2.383,2.3728,2.3728,2.3728,2.3728,2.3728,2.3728,2.34,2.3396,2.3424,2.3431,2.3458,2.3468,2.348,2.3499,2.3521,2.3536,2.3549,2.3576,2.3609,2.3631,2.3646,2.3658,2.3662,2.3641,2.3658,2.3731,2.3743,2.3754,2.3757,2.3641,2.3641,2.3579,2.3579,2.3578]}]]